Date,TemperatureHighF,TemperatureAvgF,TemperatureLowF,DewpointHighF,DewpointAvgF,DewpointLowF,HumidityHigh,HumidityAvg,HumidityLow,PressureMaxIn,PressureMinIn,WindSpeedMaxMPH,WindSpeedAvgMPH,GustSpeedMaxMPH,PrecipitationSumIn
2014-1-1,16.2,13.6,10.2,10.3,7.5,4.2,79,76,74,29.45,29.38,14,6,14,0.00
2014-1-2,16.7,10.1,-0.6,6.0,1.1,-8.0,73,67,62,29.67,29.41,12,2,12,0.00
2014-1-3,22.1,13.2,-3.8,12.6,4.7,-10.9,73,69,61,29.63,29.05,24,6,24,0.00
2014-1-4,34.7,26.7,18.5,24.8,19.3,13.3,81,74,67,29.26,28.99,14,2,14,0.00
2014-1-5,18.5,7.5,-7.8,13.9,-2.7,-19.0,82,63,55,29.50,29.26,17,7,17,0.00
2014-1-6,-4.4,-7.9,-13.9,-15.4,-18.6,-24.4,65,59,54,29.58,29.50,18,4,18,0.00
2014-1-7,14.2,5.8,-9.2,2.4,-4.0,-17.7,69,64,58,29.53,29.36,11,2,11,0.00
2014-1-8,18.5,10.7,1.8,5.6,0.1,-6.0,72,62,55,29.69,29.45,7,1,7,0.00
2014-1-9,26.4,20.8,5.0,21.9,13.6,-3.5,83,73,66,29.67,29.31,10,3,10,0.00
2014-1-10,36.9,33.9,27.0,33.6,30.3,22.5,88,87,83,29.28,28.73,17,5,17,0.44
2014-1-11,38.7,33.2,29.8,31.5,27.4,24.0,89,79,68,29.08,28.71,13,3,13,0.00
2014-1-12,44.4,38.4,25.7,34.2,31.0,21.4,86,75,66,29.07,28.76,21,5,21,0.00
2014-1-13,42.1,34.4,27.9,33.7,27.2,22.5,85,75,62,29.03,28.79,13,2,13,0.00
2014-1-14,35.2,29.0,19.0,31.4,21.5,11.8,86,73,64,29.25,28.84,17,4,17,0.05
2014-1-15,24.6,18.8,11.3,16.1,10.0,4.8,75,68,61,29.38,29.00,13,3,13,0.00
2014-1-16,37.0,28.9,12.4,30.2,20.6,3.6,81,71,61,29.06,28.79,16,4,16,0.00
2014-1-17,18.1,13.2,8.1,8.3,4.7,-0.2,73,68,64,29.25,29.06,11,3,13,0.00
2014-1-18,29.7,21.2,9.7,22.3,15.0,3.1,79,77,73,29.19,28.81,18,5,18,0.00
2014-1-19,43.5,34.3,10.0,31.9,25.2,4.2,79,70,63,29.17,28.82,16,5,16,0.03
2014-1-20,40.6,32.1,14.7,30.9,24.8,9.4,83,75,67,29.36,28.96,19,3,19,0.00
2014-1-21,13.6,7.4,0.3,8.0,-3.6,-8.5,78,60,53,29.61,29.38,14,2,14,0.00
2014-1-22,23.7,12.6,0.0,13.1,2.8,-10.6,72,65,59,29.55,29.20,18,4,18,0.00
2014-1-23,7.2,1.5,-6.0,-5.4,-9.3,-14.9,67,60,55,29.89,29.60,12,2,12,0.00
2014-1-24,31.3,21.9,-1.7,22.5,10.5,-9.9,73,62,55,29.75,28.77,26,9,26,0.00
2014-1-25,34.3,18.7,11.8,29.1,3.6,-1.2,81,52,43,29.16,28.77,14,3,14,0.00
2014-1-26,41.7,30.1,6.4,29.5,19.7,-4.0,79,65,56,29.25,28.64,21,4,21,0.00
2014-1-27,6.1,1.8,-3.3,-5.9,-10.7,-13.6,63,55,48,29.69,29.31,13,3,13,0.00
2014-1-28,15.6,7.5,-6.0,0.7,-4.6,-14.3,69,58,50,29.68,29.47,11,2,11,0.00
2014-1-29,33.8,21.0,2.1,15.9,7.8,-6.6,68,57,46,29.46,29.11,31,5,31,0.00
2014-1-30,35.1,27.8,17.2,26.2,17.8,10.1,73,66,53,29.22,28.84,20,6,22,0.00
2014-1-31,16.7,14.4,9.5,9.6,5.7,0.3,75,68,60,29.41,29.23,8,2,8,0.00
2014-2-1,27.3,21.8,16.3,19.4,15.5,9.7,82,76,71,29.39,29.10,10,2,10,0.00
2014-2-2,19.6,10.4,0.9,8.7,-0.7,-7.1,73,61,52,29.56,29.40,7,1,7,0.00
2014-2-3,19.6,5.2,-12.1,6.4,-4.7,-19.1,72,63,51,29.58,29.53,5,0,6,0.00
2014-2-4,21.9,17.3,8.2,11.9,8.5,-1.1,81,69,54,29.59,29.34,17,4,17,0.00
2014-2-5,21.0,13.5,-0.2,12.6,5.0,-8.2,82,69,60,29.74,29.31,14,3,14,0.00
2014-2-6,10.8,2.3,-8.9,-1.9,-8.1,-16.7,70,62,54,29.76,29.63,10,2,10,0.00
2014-2-7,23.9,10.1,-4.0,8.0,-1.6,-11.8,69,59,49,29.64,29.52,10,2,10,0.00
2014-2-8,26.8,20.6,10.8,15.4,11.8,1.1,75,68,62,29.48,29.31,11,2,11,0.00
2014-2-9,25.0,12.0,-2.0,12.3,2.0,-10.8,77,64,56,29.59,29.35,8,1,8,0.00
2014-2-10,13.8,2.5,-8.9,-0.3,-8.6,-16.5,70,60,51,29.71,29.59,7,1,7,0.00
2014-2-11,18.3,6.0,-9.8,2.3,-6.0,-17.9,68,58,48,29.73,29.52,11,2,11,0.00
2014-2-12,31.8,20.4,3.0,14.3,8.1,-7.0,66,59,48,29.49,29.18,16,3,16,0.00
2014-2-13,42.1,29.1,15.6,29.6,18.7,6.3,69,65,60,29.16,28.81,18,4,18,0.03
2014-2-14,26.1,16.0,5.9,12.7,6.7,-1.7,77,67,55,29.25,28.93,11,1,11,0.00
2014-2-15,22.8,15.3,0.0,13.1,6.8,-6.3,76,69,59,29.31,29.12,13,3,13,0.00
2014-2-16,34.3,25.2,14.9,19.4,14.8,9.0,79,65,53,29.44,29.16,11,3,11,0.03
2014-2-17,37.8,30.6,20.5,29.4,23.8,12.8,81,76,70,29.36,28.97,23,4,23,0.03
2014-2-18,51.1,40.5,24.1,33.9,28.6,18.2,79,63,50,29.15,28.86,17,4,17,0.19
2014-2-19,46.2,37.5,26.8,32.5,28.4,21.4,81,70,58,29.20,29.00,11,3,11,0.00
2014-2-20,44.4,36.8,32.9,41.4,32.8,28.0,89,86,78,28.99,28.37,25,5,25,1.86
2014-2-21,41.0,32.2,23.2,27.3,21.3,15.2,85,64,53,29.09,28.72,19,4,19,0.00
2014-2-22,37.2,29.7,19.9,21.6,17.6,9.6,80,61,48,29.34,29.11,12,2,12,0.00
2014-2-23,29.7,22.8,16.7,13.6,9.8,6.4,66,57,49,29.54,29.36,9,2,9,0.00
2014-2-24,30.0,22.0,13.3,13.2,8.9,5.6,72,57,45,29.59,29.47,8,2,8,0.00
2014-2-25,22.5,13.7,6.6,9.6,2.7,-3.3,74,61,50,29.55,29.48,10,3,10,0.00
2014-2-26,21.6,12.7,-2.4,9.4,0.4,-11.4,66,58,50,29.57,29.00,20,5,20,0.00
2014-2-27,17.8,7.9,1.9,7.4,-7.7,-10.3,63,49,40,29.41,29.07,13,3,13,0.00
2014-2-28,37.2,26.2,4.5,21.1,13.4,-6.7,68,58,49,29.33,29.12,20,4,20,0.00
2014-3-1,28.2,17.6,7.2,19.9,8.8,1.2,78,68,57,29.59,29.25,13,6,13,0.00
2014-3-2,10.0,3.7,-4.4,0.2,-8.9,-15.4,75,56,46,29.69,29.59,15,5,15,0.00
2014-3-3,23.0,10.1,-8.0,5.2,-3.9,-17.9,62,53,45,29.74,29.54,11,2,11,0.00
2014-3-4,35.8,24.8,10.4,18.0,11.4,1.0,69,57,45,29.51,29.33,10,2,10,0.00
2014-3-5,27.3,22.9,18.3,18.9,15.8,9.2,79,74,67,29.60,29.40,12,4,12,0.03
2014-3-6,38.8,26.3,8.2,23.1,15.6,2.8,79,65,52,29.57,29.25,10,2,12,0.03
2014-3-7,52.2,40.5,21.6,34.6,29.1,15.2,79,65,49,29.24,29.09,12,2,12,0.00
2014-3-8,35.2,32.9,26.2,29.3,26.9,19.9,85,79,75,29.50,29.24,13,3,13,0.00
2014-3-9,46.6,38.3,20.8,34.5,29.3,16.1,83,70,60,29.49,29.05,16,5,16,0.00
2014-3-10,57.4,47.9,37.9,43.7,37.5,30.7,75,67,59,29.04,28.92,10,2,10,0.00
2014-3-11,51.4,42.5,37.2,41.7,35.3,31.9,83,76,63,29.03,28.83,18,5,18,0.03
2014-3-12,36.1,32.6,24.6,30.7,22.4,17.2,86,66,58,29.35,29.00,19,4,19,0.08
2014-3-13,51.3,39.1,20.8,39.4,30.1,15.0,79,70,63,29.33,29.03,21,4,21,0.00
2014-3-14,55.9,46.7,36.3,38.0,33.4,28.1,75,61,49,29.16,28.87,17,4,17,0.00
2014-3-15,48.7,39.6,29.1,32.3,28.3,23.7,81,65,50,29.39,29.17,13,4,13,0.00
2014-3-16,32.7,25.8,19.2,26.7,14.3,9.6,84,62,52,29.56,29.36,16,5,16,0.00
2014-3-17,41.9,31.7,14.7,25.8,19.4,7.6,75,61,50,29.32,28.93,14,4,14,0.00
2014-3-18,55.0,45.0,32.2,41.1,34.4,22.5,78,67,56,28.97,28.79,20,7,20,0.00
2014-3-19,43.2,36.9,30.0,37.1,30.3,23.7,86,77,67,29.28,28.76,15,4,15,0.15
2014-3-20,54.1,42.9,28.0,35.9,30.4,22.9,82,63,47,29.29,29.15,8,1,8,0.00
2014-3-21,60.6,47.9,34.3,42.8,35.3,26.8,75,62,50,29.23,28.93,14,4,14,0.00
2014-3-22,41.4,33.2,25.3,27.5,19.6,13.3,71,58,39,29.61,29.25,14,4,14,0.00
2014-3-23,36.7,28.4,17.8,13.8,10.7,7.6,65,48,37,29.70,29.57,10,3,10,0.00
2014-3-24,43.3,33.5,21.9,24.1,18.4,10.0,76,54,42,29.61,29.34,10,2,10,0.00
2014-3-25,32.9,25.4,18.1,22.0,12.0,7.8,78,58,43,29.49,29.33,19,3,19,0.00
2014-3-26,47.7,35.7,16.0,24.7,19.5,7.0,70,53,39,29.50,29.11,29,7,29,0.00
2014-3-27,51.6,44.0,35.8,45.6,38.3,25.2,86,80,55,29.10,28.61,25,8,25,0.43
2014-3-28,41.0,38.1,36.3,36.5,31.3,29.6,86,77,71,29.38,28.77,9,1,9,0.00
2014-3-29,52.5,43.1,34.5,35.0,31.5,27.0,82,65,49,29.46,29.37,9,2,9,0.00
2014-3-30,66.4,52.4,31.3,43.4,37.5,25.3,79,58,43,29.46,29.16,18,7,18,0.00
2014-3-31,68.9,57.6,45.1,45.9,41.9,35.1,72,57,43,29.18,28.83,27,8,27,0.03
2014-4-1,50.7,39.7,29.1,30.6,24.5,18.1,64,55,45,29.32,29.01,18,5,18,0.00
2014-4-2,48.7,43.0,34.9,34.8,31.9,26.7,75,65,58,29.34,29.15,12,3,12,0.00
2014-4-3,44.8,42.0,38.1,41.5,38.6,32.5,89,87,78,29.11,28.80,15,2,15,0.55
2014-4-4,43.7,38.2,34.7,40.9,30.5,27.9,90,74,63,29.32,28.71,21,5,21,0.03
2014-4-5,58.8,47.7,28.6,37.3,32.6,22.9,81,57,43,29.44,29.33,9,1,9,0.00
2014-4-6,63.0,52.9,34.9,41.7,35.8,26.8,75,54,39,29.32,29.13,17,3,17,0.00
2014-4-7,63.3,53.2,40.8,42.4,37.3,31.1,71,56,39,29.11,28.89,14,3,14,0.00
2014-4-8,62.1,51.8,37.9,38.5,33.2,29.2,78,52,34,29.22,28.96,15,3,15,0.00
2014-4-9,69.4,54.2,34.0,39.8,34.7,26.1,77,51,33,29.30,29.03,20,4,20,0.00
2014-4-10,65.7,58.3,48.0,43.0,34.2,26.1,58,42,27,29.20,28.90,14,4,14,0.00
2014-4-11,75.7,61.5,40.1,40.0,35.0,26.1,58,39,26,29.29,29.17,15,3,15,0.00
2014-4-12,82.6,72.4,54.5,60.2,53.9,33.0,62,53,42,29.19,28.82,20,7,20,0.00
2014-4-13,67.6,61.6,53.8,60.2,55.6,47.8,86,81,60,28.96,28.59,97,5,97,0.82
2014-4-14,48.9,35.7,30.6,44.3,28.3,21.0,84,75,64,29.30,28.66,17,5,17,0.03
2014-4-15,48.2,37.2,24.6,24.2,20.2,17.5,74,52,36,29.41,29.30,14,2,14,0.00
2014-4-16,61.2,49.3,32.5,35.8,30.5,19.6,65,49,37,29.36,29.16,27,9,27,0.00
2014-4-17,58.8,49.5,41.0,40.3,35.6,29.0,74,59,48,29.50,29.22,13,3,13,0.00
2014-4-18,70.0,54.5,32.9,41.9,35.4,26.9,81,51,32,29.58,29.46,8,2,8,0.00
2014-4-19,77.7,64.5,39.4,48.5,39.6,26.1,63,41,33,29.53,29.35,21,5,21,0.00
2014-4-20,84.9,73.4,52.2,55.5,49.6,38.3,59,44,35,29.38,29.22,15,4,15,0.00
2014-4-21,71.8,64.7,55.2,59.3,54.1,44.1,79,69,51,29.22,29.09,13,3,13,0.00
2014-4-22,66.2,56.1,43.5,42.7,34.3,28.4,68,45,31,29.29,29.16,14,4,14,0.00
2014-4-23,61.7,50.3,39.4,39.5,34.7,27.4,68,56,38,29.39,29.12,13,3,13,0.17
2014-4-24,65.1,56.0,45.7,49.3,44.6,37.0,86,67,45,29.15,28.84,22,6,22,0.29
2014-4-25,76.8,62.3,41.9,51.7,43.4,36.8,84,54,32,29.10,28.93,13,2,13,0.00
2014-4-26,74.3,62.6,47.5,49.9,43.2,31.9,63,50,40,29.14,29.02,14,5,14,0.00
2014-4-27,76.6,61.2,42.4,58.7,49.5,31.4,86,67,46,29.11,28.81,27,4,27,1.63
2014-4-28,61.7,55.2,49.1,56.5,50.5,44.8,87,84,79,28.81,28.58,15,2,15,0.86
2014-4-29,58.5,52.9,46.2,50.0,46.5,41.9,85,79,70,28.87,28.63,12,3,13,0.05
2014-4-30,55.4,45.4,39.0,41.6,36.4,33.3,85,71,58,29.02,28.89,15,4,15,0.00
2014-5-1,51.4,46.9,41.5,41.3,39.7,36.7,85,76,67,29.12,28.95,15,5,15,0.05
2014-5-2,65.5,54.9,44.8,45.6,42.1,39.6,84,63,48,29.10,28.92,18,4,18,0.00
2014-5-3,72.9,62.9,45.1,44.2,42.1,36.7,73,49,33,29.17,28.97,17,3,17,0.00
2014-5-4,65.5,58.8,49.3,44.0,39.3,29.7,64,49,41,29.30,29.12,14,4,14,0.00
2014-5-5,70.2,59.5,44.8,46.5,38.8,27.1,57,47,39,29.17,29.06,13,4,13,0.00
2014-5-6,78.6,65.5,43.3,51.4,44.2,32.5,67,47,37,29.15,28.91,20,4,20,0.00
2014-5-7,88.5,76.1,60.4,66.8,60.3,45.2,72,59,43,28.99,28.87,19,5,19,0.00
2014-5-8,86.7,75.5,67.3,66.8,62.2,58.0,76,64,50,29.05,28.93,18,4,18,0.00
2014-5-9,72.1,64.6,55.9,59.5,48.0,42.3,83,56,43,29.13,28.91,14,2,14,0.03
2014-5-10,85.3,73.2,52.7,54.0,49.7,42.3,69,45,32,29.17,29.04,12,3,12,0.00
2014-5-11,84.0,72.9,60.6,67.2,61.4,48.8,77,68,56,29.12,28.97,17,3,17,0.08
2014-5-12,88.7,76.2,66.9,70.4,66.0,61.1,84,72,52,29.10,28.94,15,3,15,1.66
2014-5-13,60.3,53.2,48.7,55.5,44.5,39.8,84,72,63,29.44,29.09,10,1,10,0.00
2014-5-14,55.6,51.8,43.9,41.5,39.4,37.4,79,63,53,29.46,29.26,11,1,11,0.00
2014-5-15,62.4,52.9,45.3,46.3,42.1,39.2,79,68,49,29.25,29.20,8,1,8,0.03
2014-5-16,54.7,47.6,42.4,41.1,37.7,34.5,84,69,54,29.34,29.18,13,2,13,0.05
2014-5-17,67.1,57.6,39.0,41.2,36.7,32.8,80,47,33,29.40,29.32,9,1,9,0.00
2014-5-18,75.9,65.8,45.3,48.1,43.2,33.2,65,45,35,29.46,29.34,14,3,14,0.00
2014-5-19,75.9,67.5,52.5,58.1,51.9,40.4,69,58,49,29.38,29.04,25,4,25,0.03
2014-5-20,90.5,78.9,63.7,68.9,63.5,55.9,76,60,48,29.10,29.02,18,1,18,0.00
2014-5-21,90.5,80.1,66.4,68.4,60.6,50.0,80,54,38,29.25,29.03,10,2,10,0.00
2014-5-22,75.0,65.7,56.5,53.2,49.8,46.3,70,57,45,29.45,29.26,7,1,7,0.00
2014-5-23,81.7,71.1,54.3,54.5,49.6,44.0,70,48,35,29.42,29.34,9,1,9,0.00
2014-5-24,83.3,73.4,54.0,56.9,51.0,42.6,65,46,39,29.43,29.30,13,1,13,0.00
2014-5-25,85.8,76.7,59.9,63.1,58.6,46.1,67,54,45,29.34,29.20,12,2,12,0.00
2014-5-26,87.8,77.1,66.0,70.0,66.0,57.6,81,69,52,29.25,29.14,10,1,10,0.36
2014-5-27,86.9,76.7,67.3,71.7,65.5,61.4,84,69,53,29.20,29.11,10,1,10,0.00
2014-5-28,85.8,75.7,64.9,69.4,65.0,59.6,84,70,56,29.23,29.13,8,1,8,0.00
2014-5-29,89.2,76.6,59.7,68.8,63.1,52.9,81,64,50,29.30,29.22,9,1,9,0.00
2014-5-30,91.0,80.9,64.0,68.9,62.5,55.3,75,55,43,29.36,29.27,13,2,13,0.00
2014-5-31,92.8,82.4,65.3,69.3,65.1,53.8,71,57,45,29.35,29.21,15,2,15,0.00
2014-6-1,92.8,85.0,71.2,72.3,68.8,64.1,79,59,47,29.26,29.03,13,3,13,0.00
2014-6-2,87.1,79.1,70.0,68.1,65.5,62.6,82,64,49,29.12,28.99,12,3,12,0.24
2014-6-3,86.2,77.5,65.3,63.5,58.2,55.1,75,53,39,29.24,29.09,8,1,8,0.15
2014-6-4,73.2,68.5,62.2,64.9,60.9,55.7,85,77,69,29.13,28.85,10,0,10,0.55
2014-6-5,81.3,72.2,57.2,61.2,57.2,51.9,83,61,46,29.21,29.12,9,1,9,0.00
2014-6-6,88.5,78.0,61.0,65.5,60.5,52.5,74,56,45,29.22,29.13,8,1,8,0.00
2014-6-7,81.3,71.0,62.2,64.9,61.2,57.3,85,72,55,29.19,29.02,10,2,10,0.60
2014-6-8,72.9,67.3,59.7,61.4,58.7,55.2,86,74,66,29.27,29.11,7,1,7,0.03
2014-6-9,83.1,72.7,56.8,61.2,56.4,46.9,79,57,47,29.24,29.07,8,1,8,0.00
2014-6-10,67.8,63.3,59.7,61.1,57.7,52.8,87,82,71,29.09,28.99,8,1,8,0.47
2014-6-11,78.3,69.1,60.8,64.3,60.5,56.9,88,75,61,29.01,28.95,10,2,10,0.00
2014-6-12,76.1,69.9,62.1,64.0,57.3,48.6,85,66,48,29.17,28.99,10,1,10,0.00
2014-6-13,79.3,69.2,52.3,51.1,48.0,43.1,73,48,36,29.29,29.18,8,1,8,0.00
2014-6-14,83.1,75.0,57.7,55.2,52.7,45.7,67,47,36,29.28,29.08,18,4,18,0.00
2014-6-15,87.1,78.7,64.2,67.7,62.4,51.7,68,58,48,29.19,28.94,17,3,17,0.00
2014-6-16,91.2,80.4,64.6,73.6,68.7,57.9,81,68,54,29.27,29.02,14,2,14,0.00
2014-6-17,91.6,82.7,67.3,76.2,70.5,61.6,83,67,54,29.19,29.03,12,2,12,0.24
2014-6-18,90.1,80.4,73.4,78.4,72.2,67.6,85,76,64,29.18,29.09,10,1,10,0.19
2014-6-19,86.7,76.7,69.1,76.4,69.8,64.0,87,79,66,29.27,29.15,10,2,10,1.05
2014-6-20,89.4,81.2,67.8,71.8,67.9,63.5,89,66,48,29.23,29.15,8,0,8,0.00
2014-6-21,90.7,83.4,70.2,72.8,68.3,63.1,81,61,50,29.19,29.07,12,1,12,0.00
2014-6-22,91.0,75.7,67.3,73.6,66.6,62.2,85,74,55,29.14,29.02,8,1,8,0.79
2014-6-23,77.0,72.4,66.7,68.5,66.1,62.4,88,81,71,29.11,29.05,6,0,6,0.13
2014-6-24,86.4,79.0,67.1,67.0,64.9,62.2,87,64,48,29.17,29.09,8,1,8,0.00
2014-6-25,89.2,80.7,66.6,69.5,64.7,59.9,79,60,44,29.24,29.17,4,0,4,0.00
2014-6-26,90.9,78.1,67.6,71.7,66.2,60.2,78,68,49,29.25,29.15,8,0,8,0.19
2014-6-27,90.3,82.1,70.2,73.4,69.9,64.4,83,67,56,29.19,29.10,14,2,14,0.00
2014-6-28,86.5,79.9,71.8,74.3,70.9,65.9,84,74,67,29.19,29.06,11,2,11,0.25
2014-6-29,88.0,80.2,68.2,76.2,71.6,63.9,87,75,66,29.21,29.02,8,1,8,0.00
2014-6-30,88.3,74.5,67.3,76.4,68.0,62.9,88,81,62,29.13,28.80,17,1,17,3.39
2014-7-1,82.8,74.7,64.2,66.4,63.4,58.1,89,69,53,29.10,28.94,11,1,11,0.03
2014-7-2,66.9,63.2,60.1,56.6,55.2,54.0,83,76,66,29.29,29.09,7,0,7,0.00
2014-7-3,79.2,71.2,56.1,59.4,55.2,51.3,86,59,44,29.43,29.29,7,1,12,0.00
2014-7-4,84.7,77.0,61.3,59.9,57.0,52.6,76,51,41,29.54,29.44,10,1,10,0.00
2014-7-5,69.1,66.6,62.2,62.5,59.0,51.6,84,77,61,29.45,29.23,8,1,8,0.39
2014-7-6,88.7,80.6,65.1,74.5,70.4,60.2,87,72,61,29.22,28.99,9,1,9,0.03
2014-7-7,89.8,82.5,71.4,71.9,68.9,66.3,86,65,48,29.04,28.90,10,0,10,0.00
2014-7-8,83.1,76.6,68.9,66.6,62.0,58.6,81,62,48,29.11,28.90,6,0,6,0.00
2014-7-9,81.3,74.8,63.1,60.4,58.5,55.7,80,58,46,29.28,29.10,10,0,10,0.00
2014-7-10,88.3,78.1,63.3,65.5,61.0,54.1,73,57,44,29.38,29.28,3,0,3,0.00
2014-7-11,86.4,76.8,63.7,68.8,64.3,54.1,75,66,55,29.39,29.22,14,0,14,0.00
2014-7-12,89.8,81.9,72.5,77.4,72.7,66.0,84,74,64,29.29,29.07,11,1,11,0.16
2014-7-13,88.0,78.0,67.5,71.1,67.1,62.6,86,70,54,29.23,29.14,10,0,10,0.11
2014-7-14,81.0,73.7,60.6,66.6,58.1,48.1,85,60,45,29.20,29.09,7,1,7,0.00
2014-7-15,71.8,64.2,54.5,55.2,52.3,47.3,80,66,54,29.26,29.19,9,0,9,0.00
2014-7-16,78.6,70.3,55.6,57.3,54.6,48.9,81,59,44,29.28,29.23,6,0,6,0.00
2014-7-17,82.2,74.4,58.8,61.3,57.8,51.6,78,57,45,29.32,29.26,4,0,4,0.00
2014-7-18,86.5,76.5,61.2,63.2,59.3,53.2,76,57,43,29.37,29.28,6,0,6,0.00
2014-7-19,84.7,76.8,63.0,64.5,61.4,55.7,77,60,48,29.30,29.22,6,0,6,0.00
2014-7-20,86.7,78.2,64.8,67.0,63.7,56.4,74,62,51,29.28,29.20,8,1,8,0.00
2014-7-21,90.9,81.8,66.0,72.2,68.1,58.6,78,64,53,29.29,29.21,15,1,15,0.00
2014-7-22,89.8,80.7,71.8,77.9,72.6,64.5,84,77,67,29.26,29.16,10,0,10,0.05
2014-7-23,82.6,76.4,67.8,70.1,61.6,56.6,83,61,46,29.39,29.25,8,1,8,0.00
2014-7-24,84.4,74.3,59.9,61.0,57.4,51.3,74,57,44,29.41,29.20,9,0,9,0.00
2014-7-25,78.6,69.5,62.2,66.3,61.0,54.0,84,75,65,29.31,29.05,13,1,13,0.66
2014-7-26,82.0,76.1,67.3,72.1,68.6,60.6,83,78,71,29.11,28.99,6,0,6,0.00
2014-7-27,82.6,76.0,66.4,70.0,62.8,58.1,89,65,52,29.20,29.05,11,0,11,0.00
2014-7-28,74.8,69.5,61.3,58.7,54.2,52.1,82,59,48,29.37,29.21,9,1,9,0.00
2014-7-29,81.9,73.0,57.7,62.3,58.5,51.3,82,62,47,29.35,29.26,4,0,4,0.00
2014-7-30,83.8,74.7,60.4,64.2,60.1,53.4,80,62,47,29.31,29.25,5,0,5,0.00
2014-7-31,85.8,76.4,62.8,65.7,62.3,56.1,80,63,48,29.31,29.25,5,0,5,0.00
2014-8-1,87.1,76.1,64.9,67.5,63.3,58.8,82,66,49,29.33,29.26,7,0,7,0.94
2014-8-2,87.4,80.2,61.5,69.5,65.5,55.7,81,62,51,29.39,29.31,2,0,2,0.00
2014-8-3,88.0,80.4,65.7,68.5,65.8,59.4,80,62,48,29.41,29.29,2,0,2,0.00
2014-8-4,90.3,78.9,68.2,71.2,66.4,60.1,81,67,52,29.33,29.21,8,0,8,0.05
2014-8-5,77.9,72.9,66.0,68.5,65.4,61.0,86,78,71,29.29,29.22,7,0,7,0.00
2014-8-6,75.7,71.2,65.1,68.5,65.1,60.5,86,81,74,29.32,29.23,5,0,5,0.00
2014-8-7,73.2,70.0,66.4,66.4,62.5,56.3,85,77,69,29.25,29.19,7,0,7,0.03
2014-8-8,79.3,74.0,63.9,68.5,64.8,58.8,84,73,66,29.25,29.18,7,0,7,0.00
2014-8-9,84.9,77.0,64.4,67.0,63.4,58.4,82,64,50,29.29,29.22,8,0,8,0.00
2014-8-10,78.1,74.2,65.3,67.1,64.5,58.0,78,72,66,29.28,29.18,1,0,1,0.00
2014-8-11,82.8,75.1,64.9,70.1,64.4,56.2,83,70,60,29.18,29.11,7,0,7,0.03
2014-8-12,78.6,70.5,60.4,58.0,55.8,50.9,83,61,45,29.25,29.14,39,2,39,0.00
2014-8-13,85.1,74.1,57.0,64.0,58.9,48.7,79,60,47,29.33,29.25,4,0,4,0.00
2014-8-14,83.8,75.1,64.2,65.1,61.6,55.4,80,64,51,29.32,29.23,8,0,8,0.00
2014-8-15,74.8,69.0,61.5,63.5,58.4,51.5,77,69,63,29.29,29.16,8,0,8,0.00
2014-8-16,77.2,72.0,66.9,67.9,64.6,60.9,84,78,71,29.14,29.10,6,0,6,0.00
2014-8-17,82.6,74.9,65.5,69.5,66.3,61.2,88,75,64,29.19,29.10,6,0,6,0.00
2014-8-18,88.0,78.9,68.5,71.6,68.4,63.2,85,71,58,29.15,28.99,8,0,8,0.00
2014-8-19,88.2,79.0,70.2,71.4,67.4,63.3,87,69,51,29.05,28.94,7,0,7,0.00
2014-8-20,78.1,72.8,66.7,71.1,66.8,60.4,86,81,75,29.19,29.05,8,0,8,0.29
2014-8-21,88.0,81.1,71.4,75.8,72.5,67.3,88,76,65,29.17,29.09,7,0,7,0.00
2014-8-22,88.7,80.6,74.1,76.7,73.5,69.7,89,79,66,29.21,29.09,8,0,8,0.74
2014-8-23,82.9,76.5,71.6,73.8,70.7,68.0,89,82,73,29.24,29.12,8,0,8,1.78
2014-8-24,95.5,86.8,71.2,79.5,75.5,66.5,86,70,57,29.18,29.12,14,0,14,0.00
2014-8-25,96.1,87.2,76.8,79.8,76.0,70.7,87,70,56,29.23,29.15,7,0,10,0.00
2014-8-26,85.3,79.4,72.0,73.8,68.3,64.2,86,70,57,29.34,29.21,9,1,9,0.00
2014-8-27,82.9,75.3,67.8,69.2,65.5,61.8,81,72,62,29.39,29.28,5,0,5,0.00
2014-8-28,75.4,70.3,67.3,67.7,63.5,58.0,88,79,70,29.31,29.17,10,0,10,1.00
2014-8-29,90.0,79.6,69.3,75.1,70.2,65.2,88,74,57,29.18,29.03,10,1,10,0.25
2014-8-30,85.6,77.9,68.5,71.0,68.1,64.2,88,73,60,29.14,29.05,8,0,8,0.51
2014-8-31,90.7,81.9,66.9,73.5,70.0,62.2,87,68,55,29.16,29.02,9,0,9,0.00
2014-9-1,82.2,76.4,66.0,69.4,66.7,61.6,88,73,62,29.11,28.91,10,1,10,0.52
2014-9-2,82.2,76.4,66.0,66.9,64.3,59.3,87,67,55,29.20,29.08,6,0,6,0.00
2014-9-3,88.0,77.9,62.8,71.4,66.3,56.8,81,68,53,29.24,29.10,12,0,12,0.00
2014-9-4,91.6,81.3,69.1,77.9,71.9,64.2,87,74,62,29.19,29.07,9,1,9,1.42
2014-9-5,84.6,72.8,62.2,71.4,64.0,53.8,84,75,60,29.37,29.14,9,0,13,0.05
2014-9-6,76.3,68.1,56.5,56.9,54.1,51.3,83,62,47,29.45,29.36,7,0,7,0.03
2014-9-7,82.0,73.3,57.0,60.7,56.6,51.3,82,57,44,29.45,29.33,6,0,6,0.00
2014-9-8,81.5,72.7,58.3,62.0,57.9,49.3,73,61,50,29.33,29.10,7,0,7,0.00
2014-9-9,77.5,69.1,62.8,67.0,63.0,57.8,86,81,69,29.23,28.99,12,1,12,1.96
2014-9-10,77.4,70.1,57.7,68.7,63.2,50.6,90,79,68,29.17,28.73,12,1,12,1.58
2014-9-11,58.3,54.0,50.2,49.8,45.4,43.4,81,73,66,29.51,29.20,8,1,8,0.00
2014-9-12,56.1,50.2,43.7,46.9,43.6,38.4,82,78,68,29.57,29.49,8,1,8,0.05
2014-9-13,64.6,56.4,40.3,44.0,41.2,35.5,84,58,44,29.61,29.49,7,0,7,0.00
2014-9-14,70.5,61.3,43.7,50.2,47.1,36.2,77,61,46,29.52,29.36,4,0,4,0.00
2014-9-15,68.7,57.9,50.7,58.1,50.8,44.8,84,77,68,29.43,29.27,9,1,9,0.13
2014-9-16,71.4,59.8,44.8,51.3,46.8,39.6,85,64,46,29.46,29.29,3,0,3,0.00
2014-9-17,73.2,63.5,51.4,57.1,52.0,43.3,80,67,54,29.29,29.16,7,0,7,0.00
2014-9-18,76.8,66.8,51.1,57.8,52.7,45.4,83,62,47,29.34,29.24,9,0,9,0.00
2014-9-19,79.0,68.3,53.4,58.6,54.4,46.8,79,62,48,29.33,29.13,8,1,9,0.00
2014-9-20,79.9,72.1,62.4,69.5,64.7,55.2,85,78,70,29.16,29.04,9,0,9,0.00
2014-9-21,67.8,62.0,54.5,58.6,51.0,46.8,82,68,59,29.41,29.10,9,1,9,0.00
2014-9-22,72.7,61.6,47.7,50.3,47.0,41.8,81,60,44,29.54,29.41,2,0,2,0.00
2014-9-23,77.9,66.6,51.4,53.2,48.9,42.4,72,54,39,29.55,29.43,5,0,5,0.00
2014-9-24,79.2,68.3,55.9,55.7,51.1,46.5,72,55,41,29.53,29.42,8,0,8,0.00
2014-9-25,82.8,71.5,60.3,59.4,55.2,49.1,69,57,44,29.49,29.38,6,0,6,0.00
2014-9-26,83.8,72.6,59.5,63.7,57.8,50.4,73,61,48,29.45,29.37,6,0,6,0.00
2014-9-27,84.7,75.2,61.0,62.9,58.0,51.6,72,56,43,29.43,29.33,6,0,6,0.00
2014-9-28,85.6,74.3,58.8,62.2,57.9,51.3,77,58,43,29.38,29.27,2,0,2,0.00
2014-9-29,84.6,73.8,59.4,63.6,58.3,52.3,78,60,43,29.28,29.16,6,0,6,0.00
2014-9-30,71.2,61.9,55.0,56.3,51.2,47.0,79,68,57,29.25,29.14,6,0,6,0.00
2014-10-1,69.4,63.2,52.9,60.7,55.0,45.5,84,75,67,29.15,29.00,10,0,10,0.00
2014-10-2,69.1,64.9,62.2,63.8,60.5,58.0,88,86,80,29.06,28.85,9,0,9,0.46
2014-10-3,62.4,50.5,44.2,58.8,39.8,29.8,88,68,55,29.16,28.83,8,1,8,0.61
2014-10-4,53.2,46.7,37.8,35.5,32.4,26.3,67,58,48,29.10,29.03,9,1,9,0.00
2014-10-5,61.9,53.4,39.4,42.9,39.8,30.3,76,61,47,29.01,28.86,9,0,9,0.00
2014-10-6,63.3,55.8,47.3,45.0,41.2,37.9,81,60,40,28.90,28.80,7,0,7,0.00
2014-10-7,69.6,59.6,50.9,50.2,45.7,40.1,80,61,45,29.15,28.85,8,0,8,0.00
2014-10-8,69.6,58.8,45.1,44.7,40.3,37.0,75,52,34,29.32,29.15,8,0,8,0.00
2014-10-9,65.3,56.8,50.9,50.5,46.3,38.3,83,69,53,29.35,29.28,5,0,5,0.61
2014-10-10,60.1,53.3,43.3,42.2,38.8,34.1,71,58,50,29.41,29.34,6,0,6,0.00
2014-10-11,63.9,55.1,40.3,43.8,39.0,33.6,79,56,43,29.48,29.33,5,0,5,0.00
2014-10-12,56.1,51.3,40.8,48.8,44.4,32.8,85,77,62,29.31,29.06,9,0,9,0.00
2014-10-13,66.0,59.9,53.4,63.3,56.6,49.0,91,89,85,29.05,28.65,13,1,13,1.58
2014-10-14,61.5,55.4,51.4,57.6,51.5,47.3,89,87,83,28.96,28.64,12,3,12,0.49
2014-10-15,58.6,54.3,49.8,47.9,46.2,44.3,85,74,66,29.10,28.97,8,1,8,0.00
2014-10-16,70.3,58.3,45.9,55.1,47.5,41.3,85,69,47,29.11,28.88,8,0,8,0.00
2014-10-17,59.7,54.7,50.4,46.8,44.3,42.0,75,68,60,29.19,28.87,8,0,8,0.00
2014-10-18,52.9,49.0,43.5,43.6,40.9,36.4,81,74,67,29.43,29.21,6,0,6,0.00
2014-10-19,63.0,54.7,39.4,47.3,43.4,34.1,83,66,54,29.42,29.14,9,1,9,0.00
2014-10-20,67.8,58.2,46.2,48.1,44.5,40.5,81,62,46,29.23,29.09,8,1,8,0.00
2014-10-21,60.6,52.4,42.6,44.2,39.9,35.6,80,63,50,29.46,29.24,8,1,8,0.00
2014-10-22,63.0,52.0,37.2,44.9,38.9,30.7,78,62,47,29.55,29.41,10,1,10,0.00
2014-10-23,61.3,54.0,44.1,48.9,44.0,35.3,75,69,63,29.40,29.24,8,1,8,0.00
2014-10-24,70.3,60.6,51.4,58.0,52.8,45.2,87,76,61,29.29,29.13,10,0,10,0.00
2014-10-25,72.7,63.1,51.3,53.4,45.2,37.9,87,55,38,29.26,29.16,9,1,9,0.00
2014-10-26,70.2,61.6,45.7,42.9,38.0,32.9,61,42,33,29.26,28.95,10,1,10,0.00
2014-10-27,76.5,69.2,61.0,60.4,57.0,46.4,79,66,56,28.94,28.78,14,2,14,0.00
2014-10-28,61.0,53.5,44.8,47.6,36.9,32.6,67,54,43,29.26,28.95,11,1,11,0.00
2014-10-29,54.1,46.7,39.4,35.3,32.6,29.8,69,58,48,29.37,29.27,8,0,8,0.00
2014-10-30,55.0,45.8,36.5,41.4,36.3,28.8,75,70,59,29.36,29.23,6,0,6,0.00
2014-10-31,46.8,37.6,30.0,38.7,21.3,17.8,75,52,42,29.65,29.33,17,5,17,0.00
2014-11-1,49.1,39.6,24.6,29.3,24.5,15.8,70,55,45,29.70,29.57,3,0,3,0.00
2014-11-2,51.3,45.6,31.8,32.3,28.1,21.7,68,51,42,29.57,29.31,17,3,17,0.00
2014-11-3,68.7,58.0,40.8,52.6,42.8,26.3,78,57,49,29.30,29.13,19,3,19,0.02
2014-11-4,58.8,47.2,41.5,54.4,38.3,34.9,86,71,62,29.33,29.12,10,1,10,0.02
2014-11-5,61.7,51.7,37.8,44.5,39.0,32.3,82,64,47,29.35,29.12,12,2,12,0.02
2014-11-6,49.6,41.3,31.3,43.7,30.6,23.4,82,66,53,29.50,29.10,16,2,16,0.02
2014-11-7,52.2,42.3,28.2,36.8,31.3,22.2,80,66,55,29.48,28.97,10,2,10,0.02
2014-11-8,49.6,42.7,33.8,36.9,28.2,23.2,72,57,45,29.25,28.97,14,2,14,0.02
2014-11-9,58.8,49.8,33.6,39.2,35.4,24.2,72,58,47,29.20,28.95,15,1,15,0.02
2014-11-10,66.9,56.7,45.3,48.1,42.4,34.8,69,59,49,28.95,28.64,13,2,13,0.02
2014-11-11,46.8,33.1,28.6,37.6,25.4,19.4,81,73,68,29.47,28.84,10,1,10,0.05
2014-11-12,28.8,25.7,22.6,19.3,14.4,12.3,68,62,57,29.59,29.48,9,1,9,0.02
2014-11-13,29.8,26.8,22.1,20.4,17.4,13.0,78,68,62,29.60,29.56,8,1,8,0.02
2014-11-14,29.1,21.8,15.4,16.6,12.3,8.6,75,67,58,29.64,29.55,5,0,5,0.02
2014-11-15,33.6,28.5,17.4,21.0,19.1,10.9,76,68,56,29.58,29.40,4,0,4,0.02
2014-11-16,33.4,24.3,12.7,26.4,17.7,6.0,81,76,72,29.37,29.19,5,0,5,0.02
2014-11-17,21.0,15.5,12.0,9.4,6.4,2.7,77,67,58,29.33,29.17,19,4,19,0.02
2014-11-18,23.2,17.6,9.5,11.7,7.9,2.1,72,66,57,29.41,29.19,10,1,10,0.02
2014-11-19,28.2,25.0,20.5,20.2,15.4,11.9,75,67,59,29.32,28.98,14,3,14,0.02
2014-11-20,31.3,24.1,16.7,16.5,12.2,6.7,72,61,49,29.54,29.31,12,1,12,0.02
2014-11-21,37.6,29.1,12.4,24.3,14.2,4.1,70,54,41,29.61,29.32,12,2,12,0.02
2014-11-22,54.1,49.2,33.6,48.1,44.0,26.2,87,82,74,29.30,28.98,10,2,10,0.02
2014-11-23,54.3,50.0,47.1,51.4,46.5,44.1,90,88,86,29.92,28.58,13,2,13,0.02
2014-11-24,33.6,29.1,25.7,29.5,24.3,19.2,88,82,76,30.53,29.89,0,0,0,0.00
2014-11-25,31.5,24.3,17.2,22.3,16.9,10.8,80,74,67,30.78,30.55,0,0,0,0.00
2014-11-26,34.9,28.6,20.8,28.0,23.3,15.9,84,81,75,30.87,30.64,8,0,8,0.00
2014-11-27,26.1,18.8,10.6,21.1,10.5,3.1,82,70,60,31.08,30.89,5,0,5,0.00
2014-11-28,39.2,31.2,15.3,30.0,24.0,8.5,82,74,68,30.97,30.39,17,3,17,0.00
2014-11-29,52.2,44.2,34.3,46.3,39.4,29.7,87,83,79,30.36,30.18,10,2,10,0.00
2014-11-30,42.4,28.9,21.4,38.8,22.3,12.9,87,76,69,30.99,30.22,8,1,8,0.00
2014-12-1,21.0,17.8,13.3,11.6,5.0,3.8,69,57,51,31.30,31.01,9,2,9,0.00
2014-12-2,31.1,25.4,12.7,22.1,17.2,4.7,75,71,67,31.11,30.68,7,1,7,0.00
2014-12-3,36.5,29.0,21.4,22.5,18.0,14.8,79,64,51,31.00,30.71,6,0,6,0.00
2014-12-4,34.7,30.8,24.1,25.8,20.5,14.6,76,66,59,30.97,30.79,7,1,7,0.00
2014-12-5,37.8,35.8,32.5,33.9,31.6,26.4,87,85,78,30.88,30.74,7,0,7,0.00
2014-12-6,42.8,36.0,30.2,32.6,28.4,23.2,88,74,61,31.23,30.89,8,1,8,0.00
2014-12-7,39.4,33.7,26.8,30.0,26.7,21.2,82,75,68,31.22,30.85,14,2,14,0.00
2014-12-8,39.9,36.4,30.9,36.6,32.0,24.3,88,84,74,30.84,30.65,10,1,10,0.00
2014-12-9,36.7,33.2,27.1,28.7,26.1,21.1,78,75,72,31.02,30.82,8,0,8,0.00
2014-12-10,35.8,32.7,29.3,26.8,24.7,21.8,75,72,69,31.02,30.90,2,0,2,0.00
2014-12-11,36.3,29.7,23.5,26.8,22.2,18.0,80,74,67,30.94,30.87,6,0,6,0.00
2014-12-12,39.0,34.6,26.4,32.8,29.4,21.4,85,81,77,30.97,30.85,6,0,6,0.00
2014-12-13,48.9,43.9,32.7,43.3,39.3,28.9,87,84,81,30.85,30.68,8,0,8,0.00
2014-12-14,51.6,48.8,43.5,48.7,45.8,39.0,90,89,87,30.69,30.54,9,1,9,0.00
2014-12-15,48.7,47.8,46.8,45.8,44.8,43.6,90,89,89,30.53,30.23,18,4,18,0.00
2014-12-16,46.2,31.0,21.4,43.4,25.8,15.0,90,81,75,30.88,30.24,14,3,14,0.00
2014-12-17,30.9,24.7,20.3,21.0,17.0,14.0,77,72,64,30.95,30.87,8,0,8,0.00
2014-12-18,33.1,27.6,19.0,22.6,19.8,13.3,80,73,64,30.92,30.85,3,0,3,0.00
2014-12-19,36.3,29.6,21.0,24.6,21.2,15.2,79,71,61,30.95,30.86,3,0,3,0.00
2014-12-20,36.3,34.0,29.8,29.8,27.8,23.4,82,78,76,30.87,30.79,7,1,7,0.00
2014-12-21,42.6,38.8,34.9,36.0,33.1,30.3,85,80,76,30.78,30.52,21,4,21,0.00
2014-12-22,43.5,39.0,36.0,40.4,34.9,30.7,89,85,80,30.50,30.09,14,1,14,0.00
2014-12-23,46.8,41.2,37.8,40.9,35.7,32.4,90,81,72,30.39,30.08,13,2,13,0.00
2014-12-24,37.8,35.9,34.3,33.8,31.5,29.0,87,84,81,30.38,30.21,8,1,8,0.00
2014-12-25,50.0,41.6,32.4,37.9,33.3,27.4,83,73,61,30.55,30.39,12,3,12,0.00
2014-12-26,55.0,46.8,38.3,43.0,38.8,32.7,81,74,64,30.60,30.53,12,1,12,0.00
2014-12-27,48.2,34.3,28.0,44.3,27.4,20.4,87,76,73,30.82,30.52,10,0,10,0.02
2014-12-28,40.1,30.5,19.9,26.9,20.8,14.1,79,67,54,30.86,30.77,2,0,2,0.00
2014-12-29,35.2,27.4,18.5,25.3,19.4,10.4,78,72,65,31.15,30.86,6,0,6,0.00
2014-12-30,20.5,13.5,8.2,9.2,1.4,-2.9,72,59,46,31.36,31.17,2,0,2,0.00
2014-12-31,26.4,17.5,3.4,10.3,4.7,-4.8,68,57,49,31.28,30.82,11,2,11,0.00
2015-1-1,34.9,26.7,15.8,20.3,15.0,5.6,68,61,55,30.82,30.64,9,2,9,0.00
2015-1-2,38.3,29.8,19.6,25.1,19.8,11.9,74,66,58,30.92,30.70,8,0,8,0.00